Regional Weather Roundup
Issued by NWS

Home | Current Version | Previous Version | Graphics & Text | Print | Product List | Glossary On
Versions: 1 2 3 4 5 6 7 8 9 10 11 12 13 14 15 16 17 18 19 20 21 22 23 24 25 26 27 28 29 30 31 32 33 34 35 36 37 38 39 40 41 42 43 44 45 46 47 48 49 50
000
ASUS43 KLSX 010607
RWRMO

WEATHER SUMMARY FOR MISSOURI
NATIONAL WEATHER SERVICE SPRINGFIELD MO
100 AM CDT SUN MAY 01 2016

NOTE: "FAIR" INDICATES FEW OR NO CLOUDS BELOW 12,000 FEET WITH NO
       SIGNIFICANT WEATHER AND/OR OBSTRUCTIONS TO VISIBILITY.
       CURRENT SKY AND/OR WEATHER CONDITIONS ARE NOT AVAILABLE FOR
       CHILLICOTHE AND FARMINGTON.

MOZ001>031-035>038-043-044-053-054-010700-
...NORTHERN AND WESTERN MISSOURI...

CITY           SKY/WX    TMP DP  RH WIND       PRES   REMARKS
KANSAS CTY INT CLOUDY    54  47  77 W6        29.88R
6HR MIN TEMP:  54; 6HR MAX TEMP:  64;

KANSAS C DTWN  MOCLDY    58  47  66 W5        29.87R
6HR MIN TEMP:  58; 6HR MAX TEMP:  67;

LEE`S SUMMIT   MOCLDY    55  48  77 W6        29.88R
6HR MIN TEMP:  55; 6HR MAX TEMP:  66;

ST JOSEPH      CLOUDY    56  49  77 W3        29.88R
6HR MIN TEMP:  54; 6HR MAX TEMP:  63;

CHILLICOTHE      N/A     55  53  93 CALM      29.88R
6HR MIN TEMP:  51; 6HR MAX TEMP:  66;

KIRKSVILLE     FOG       53  51  93 NE8       29.88S VSB 1/2
6HR MIN TEMP:  53; 6HR MAX TEMP:  63;


$$
MOZ066>068-077>081-088>096-101>105-010700-
...SOUTHWEST MISSOURI...

CITY           SKY/WX    TMP DP  RH WIND       PRES   REMARKS
SPRINGFIELD    CLEAR     57  49  74 W7        29.89R
6HR MIN TEMP:  55; 6HR MAX TEMP:  69;

JOPLIN         CLEAR     53  49  86 W7        29.93R
6HR MIN TEMP:  52; 6HR MAX TEMP:  66;


$$
MOZ032>034-039>042-045>050-055>058-069>072-010700-
...CENTRAL MISSOURI...

CITY           SKY/WX    TMP DP  RH WIND       PRES   REMARKS
COLUMBIA       CLEAR     54  51  90 SW3       29.85R
6HR MIN TEMP:  54; 6HR MAX TEMP:  70;

JEFFERSON CITY CLEAR     55  54  96 SE3       29.85R
6HR MIN TEMP:  55; 6HR MAX TEMP:  73;

ROLLA          CLEAR     52  51  97 S5        29.85R
6HR MIN TEMP:  52; 6HR MAX TEMP:  71;

SEDALIA        PTCLDY    58  51  78 SW7       29.88R
6HR MIN TEMP:  58; 6HR MAX TEMP:  69;

WHITEMAN AFB   CLEAR     54  53  94 W6        29.86R
WARRENSBURG    PTCLDY    55  46  71 SW5       29.88R
OSAGE BEACH    CLEAR     55  46  71 SW5       29.87S

$$
MOZ051-052-059>065-010700-
...EAST CENTRAL MISSOURI...

CITY           SKY/WX    TMP DP  RH WIND       PRES   REMARKS
ST LOUIS INTL  CLOUDY    62  57  83 NW5       29.84F
6HR MIN TEMP:  60; 6HR MAX TEMP:  72; 6HR PCP:  0.40;

SPIRIT OF STL  CLOUDY    59  58  96 CALM      29.83F
6HR MIN TEMP:  58; 6HR MAX TEMP:  64;

ST CHARLES     MOCLDY    57  56  96 NE3       29.83F
6HR MIN TEMP:  57; 6HR MAX TEMP:  66; 6HR PCP:  0.07;


$$
MOZ072>076-082>087-097>100-106>115-010700-
...SOUTH CENTRAL AND SOUTHEAST MISSOURI...

CITY           SKY/WX    TMP DP  RH WIND       PRES   REMARKS
CAPE GIRARDEAU PTCLDY    62  60  93 S6        29.85S
6HR MIN TEMP:  62; 6HR MAX TEMP:  71;

FARMINGTON     LGT RAIN  61  59  93 CALM      29.89R
6HR MIN TEMP:  61; 6HR MAX TEMP:  72; 6HR PCP: TRACE;

POPLAR BLUFF   LGT RAIN  67  62  84 SW9       29.84S
6HR MIN TEMP:  66; 6HR MAX TEMP:  73; 6HR PCP: TRACE;

WEST PLAINS    MOCLDY    59  57  93 CALM      29.88S
6HR MIN TEMP:  59; 6HR MAX TEMP:  71;


$$


USA.gov is the U.S. government's official web portal to all federal, state and local government web resources and services.